Regional Weather Roundup
Issued by NWS Albany, NY

Current Version | Previous Version | Graphics & Text | Print | Product List | Glossary Off
Versions: 1 2 3 4 5 6 7 8 9 10 11 12 13 14 15 16 17 18 19 20 21 22 23 24 25 26 27 28 29 30 31 32 33 34 35 36 37 38 39 40 41 42 43 44 45 46 47 48 49 50

000
ASUS41 KALY 272210
RWRALY

NEW YORK STATE HOURLY WEATHER ROUNDUP
NATIONAL WEATHER SERVICE ALBANY NY
600 PM EDT WED MAY 27 2015

NOTE: "FAIR" INDICATES FEW OR NO CLOUDS BELOW 12,000 FEET WITH NO
SIGNIFICANT WEATHER AND/OR NO OBSTRUCTIONS TO VISIBILITY.

NYZ032-033-038>043-046>054-057>066-NYZ062>081-272300-
EAST


CITY           SKY/WX    TMP DP  RH WIND       PRES   REMARKS
ALBANY         LGT RAIN  71  65  81 S8        30.04R
GLENS FALLS    LGT RAIN  72  68  87 S9        30.00F
POUGHKEEPSIE   TSTM      71  65  81 W12G31    30.10R
NEWBURGH       TSTM     N/A N/A N/A W23G35    30.12R
MONTGOMERY     LGT RAIN  70  66  87 S8        30.08S
WHITE PLAINS   PTSUNNY   74  65  73 SE9       30.09F
ISLIP          MOSUNNY   69  60  73 S21G29    30.13F
NEW YORK CITY  MOSUNNY   73  60  63 S22       30.07F
CENTRAL PARK   MOSUNNY   79  63  57 MISG      30.09F
$$

NYZ005>009-017-018-044>046-055-056-272300-
CENTRAL


CITY           SKY/WX    TMP DP  RH WIND       PRES   REMARKS
FULTON         SUNNY     82  65  56 CALM      29.98S
SYRACUSE       PTSUNNY   81  61  50 SW12      29.98S
ROME           PTSUNNY   82  62  50 SW10      30.00S
ELMIRA         MOSUNNY   83  60  45 W12G18    30.03R
BINGHAMTON     PTSUNNY   76  62  62 SW6       30.08S
MONTICELLO     CLOUDY    66  66 100 SW3       30.13F
$$

NYZ026>034-041>043-272300-
NORTH


CITY           SKY/WX    TMP DP  RH WIND       PRES   REMARKS
WATERTOWN      SUNNY     79  63  57 SW13G20   29.96S
FORT DRUM      NOT AVBL
MASSENA        MOSUNNY   80  59  48 SW22G33   29.91S
SARANAC LAKE   CLOUDY    76  62  62 W10       29.99S
PLATTSBURGH    PTSUNNY   70  64  81 SE6       29.92F
$$

NYZ001>004-010>016-019>021-272300-
WEST


CITY           SKY/WX    TMP DP  RH WIND       PRES   REMARKS
NIAGARA FALLS  MOSUNNY   81  57  43 SW24G33   29.97S
BUFFALO        MOSUNNY   79  58  48 SW18G26   29.99S
DUNKIRK        MOSUNNY   79  60  52 SW14      30.01S
JAMESTOWN      MOSUNNY   77  57  50 S12G17    30.07S
WELLSVILLE     SUNNY     76  55  48 SW13G20   30.10S
ROCHESTER      PTSUNNY   84  55  36 W18G24    29.98S
PENN YAN       MOSUNNY   83  58  42 SW9       30.02S
$$

             KEY
       WCI = WIND CHILL INDEX
       VSB = VISIBILITY
       HX  = HEAT INDEX
$$



USA.gov is the U.S. government's official web portal to all federal, state and local government web resources and services.